Year,Month,Day,Hour,Minute,Value (Times are PST for temperature in C)
2016,02,21,14,18,7.80
2016,02,21,14,19,7.80
2016,02,21,14,20,7.80
2016,02,21,14,21,7.80
2016,02,21,14,22,7.80
2016,02,21,14,23,7.80
2016,02,21,14,24,7.80
2016,02,21,14,25,7.80
2016,02,21,14,26,7.80
2016,02,21,14,27,7.80
2016,02,21,14,28,7.80
2016,02,21,14,29,7.90
2016,02,21,14,30,8.00
2016,02,21,14,31,8.00
2016,02,21,14,32,8.10
2016,02,21,14,33,8.30
2016,02,21,14,34,8.40
2016,02,21,14,35,8.40
2016,02,21,14,36,8.40
2016,02,21,14,37,8.40
2016,02,21,14,38,8.40
2016,02,21,14,39,8.40
2016,02,21,14,40,8.40
2016,02,21,14,41,8.40
2016,02,21,14,42,8.40
2016,02,21,14,43,8.40
2016,02,21,15,16,9.20
2016,02,21,15,17,9.10
2016,02,21,15,18,9.00
2016,02,21,15,19,8.90
2016,02,21,15,20,8.90
2016,02,21,15,21,8.80
2016,02,21,15,22,8.80
2016,02,21,15,23,8.70
2016,02,21,15,24,8.70
2016,02,21,15,25,8.70
2016,02,21,15,26,8.60
2016,02,21,15,27,8.60
2016,02,21,15,28,8.50
2016,02,21,15,29,8.50
2016,02,21,15,30,8.40
2016,02,21,15,31,8.30
2016,02,21,15,32,8.30
2016,02,21,15,33,8.30
2016,02,21,15,34,8.20
2016,02,21,15,35,8.20
2016,02,21,15,36,8.20
2016,02,21,15,37,8.20
2016,02,21,15,38,8.20
2016,02,21,15,39,8.20
2016,02,21,15,40,8.20
2016,02,21,15,41,8.20
2016,02,21,15,42,8.20
2016,02,21,15,43,8.20
2016,02,21,15,44,8.20
2016,02,21,15,45,8.20
2016,02,21,15,46,8.20
2016,02,21,15,47,8.20
2016,02,21,15,48,8.20
2016,02,21,15,49,8.10
2016,02,21,15,50,8.10
2016,02,21,15,51,8.00
2016,02,21,15,52,8.00
2016,02,21,15,53,7.90
2016,02,21,15,54,7.90
2016,02,21,15,55,7.80
2016,02,21,15,56,7.80
2016,02,21,15,57,7.70
2016,02,21,15,58,7.60
2016,02,21,15,59,7.50
2016,02,21,16,00,7.50
2016,02,21,16,01,7.40
2016,02,21,16,02,7.40
2016,02,21,16,03,7.30
2016,02,21,16,04,7.30
2016,02,21,16,05,7.30
2016,02,21,16,06,7.30
2016,02,21,16,07,7.30
2016,02,21,16,08,7.30
2016,02,21,16,09,7.30
2016,02,21,16,10,7.20
2016,02,21,16,11,7.20
2016,02,21,16,12,7.20
2016,02,21,16,13,7.20
2016,02,21,16,14,7.20
2016,02,21,16,15,7.20
2016,02,21,16,16,7.20
2016,02,21,16,17,7.20
2016,02,21,16,18,7.20
2016,02,21,16,19,7.30
2016,02,21,16,20,7.30
2016,02,21,16,21,7.30
2016,02,21,16,22,7.40
2016,02,21,16,23,7.40
2016,02,21,16,24,7.50
2016,02,21,16,25,7.60
2016,02,21,16,26,7.70
2016,02,21,16,27,7.70
2016,02,21,16,28,7.80
2016,02,21,16,29,7.80
2016,02,21,16,30,7.80
2016,02,21,16,31,7.80
2016,02,21,16,32,7.80
2016,02,21,16,33,7.80
2016,02,21,16,34,7.80
2016,02,21,16,35,7.70
2016,02,21,16,36,7.70
2016,02,21,16,37,7.70
2016,02,21,16,38,7.80
2016,02,21,16,39,7.80
2016,02,21,16,40,7.80
2016,02,21,16,41,7.80
2016,02,21,16,42,7.90
2016,02,21,16,43,7.90
2016,02,21,16,44,7.90
2016,02,21,16,45,7.90
2016,02,21,16,46,7.90
2016,02,21,16,47,7.80
2016,02,21,16,48,7.80
2016,02,21,16,49,7.80
2016,02,21,16,50,7.70
2016,02,21,16,51,7.70
2016,02,21,16,52,7.70
2016,02,21,16,53,7.70
2016,02,21,16,54,7.60
2016,02,21,16,55,7.60
2016,02,21,16,56,7.60
2016,02,21,16,57,7.60
2016,02,21,16,58,7.60
2016,02,21,16,59,7.50
2016,02,21,17,00,7.50
2016,02,21,17,01,7.50
2016,02,21,17,02,7.40
2016,02,21,17,03,7.40
2016,02,21,17,04,7.40
2016,02,21,17,05,7.40
2016,02,21,17,06,7.40
2016,02,21,17,07,7.40
2016,02,21,17,08,7.30
2016,02,21,17,09,7.30
2016,02,21,17,10,7.30
2016,02,21,17,11,7.30
2016,02,21,17,12,7.30
2016,02,21,17,13,7.30
2016,02,21,17,14,7.30
2016,02,21,17,15,7.30
2016,02,21,17,16,7.30
2016,02,21,17,17,7.30
2016,02,21,17,18,7.30
2016,02,21,17,19,7.30
2016,02,21,17,20,7.30
2016,02,21,17,21,7.30
2016,02,21,17,22,7.30
2016,02,21,17,23,7.30
2016,02,21,17,24,7.30
